[[{"header":{"parameterUnit":"m.s-1","parameterCategory":1,"la1":30.2991,"la2":30.254,"lo1":-89.0895,"lo2":-89.0444,"dy":0.0017,"dx":0.0017,"nx":28,"ny":28,"refTime":"2024-11-22T03:00:00:Z","depth":0,"parameterNumber":2,"parameterNumberName":"U-component_of_WINDS"},"data":[0,0,0,0,0,0,0,0,0,0,0,0,0,0,0,0,0,0,0,0,0,0,0,0,0,0,0,0,0,0,0,0,0,0,0,0,0,0,0,0,0,0,0,0,0,0,0,0,0,0,0,0,0,0,0,0,0,0,-0.2024,-0.2023,0,-0.1946,-0.1945,-0.1945,-0.188,-0.1879,-0.1879,-0.1878,-0.18,-0.1798,-0.1797,0,0,0,0,0,0,0,0,0,0,0,0,0,-0.2117,-0.2116,-0.2024,-0.2023,-0.2022,-0.1946,-0.1945,-0.1944,-0.188,-0.1879,-0.1878,-0.1878,-0.18,-0.1798,-0.1797,0,0,0,0,0,0,0,0,0,0,0,0,0,-0.2062,-0.2115,-0.2024,-0.1981,-0.1976,-0.1947,-0.1945,-0.1944,-0.188,-0.1879,-0.1878,-0.1877,-0.1801,-0.1799,-0.1796,-0.1804,0,0,-0.179,-0.1789,0,0,0,0,0,0,0,0,-0.2065,-0.2059,-0.1988,-0.1984,-0.1978,-0.1922,-0.195,-0.1897,-0.188,-0.1917,-0.1878,-0.1877,-0.1841,-0.1836,-0.1823,-0.1801,-0.1797,-0.179,-0.1788,-0.1788,-0.1787,0,0,0,0,0,0,0,-0.2069,-0.2062,-0.1993,-0.1987,-0.1981,-0.1966,-0.1957,-0.1939,-0.1886,-0.1913,-0.1908,-0.19,-0.1838,-0.1826,-0.1821,-0.1796,-0.179,-0.1788,-0.1787,-0.1786,-0.1776,-0.1777,0,0,0,0,0,0,-0.208,-0.2065,-0.1996,-0.1991,-0.202,-0.1965,-0.1955,-0.1941,-0.1886,-0.1876,-0.1901,-0.1897,-0.183,-0.1824,-0.1818,-0.1824,-0.1788,-0.1786,-0.1784,-0.1775,-0.1777,-0.1778,0,0,0,0,0,0,-0.2082,-0.2074,-0.1999,-0.2027,-0.2016,-0.1964,-0.1949,-0.194,-0.1927,-0.1876,-0.1867,-0.1898,-0.1829,-0.1821,-0.1808,-0.182,-0.1785,-0.1783,-0.1774,-0.1776,-0.1777,-0.1836,0,0,0,0,0,0,-0.2085,-0.2075,-0.2077,-0.2027,-0.2015,-0.199,-0.195,-0.1939,-0.1924,-0.1918,-0.1871,-0.1862,-0.1827,-0.1812,-0.1806,-0.1817,-0.1781,-0.1773,-0.1775,-0.1777,-0.1832,-0.1839,-0.1845,0,0,0,0,0,-0.2088,-0.2097,-0.2078,-0.207,-0.2016,-0.1991,-0.1984,-0.1943,-0.1925,-0.1927,-0.1894,-0.1864,-0.182,-0.1811,-0.1804,-0.1814,-0.1772,-0.1774,-0.1776,-0.183,-0.1838,-0.1844,0,0,0,0,0,0,-0.215,-0.2089,-0.2067,-0.206,-0.2031,-0.198,-0.1981,-0.1953,-0.1929,-0.1924,-0.1876,-0.1866,-0.1858,-0.1835,-0.1826,-0.1819,-0.1792,-0.1793,-0.1835,-0.1842,-0.1848,-0.1854,-0.1779,0,0,0,0,0,-0.2162,-0.2146,-0.2095,-0.2093,-0.208,-0.2033,-0.202,-0.1992,-0.196,-0.1947,-0.1914,-0.1884,-0.1864,-0.1852,-0.183,-0.1829,-0.1818,-0.1832,-0.1838,-0.1844,-0.1845,-0.1843,-0.1849,-0.1785,-0.1785,-0.1785,0,0,-0.2188,-0.2153,-0.2146,-0.2105,-0.2079,-0.2064,-0.2023,-0.2009,-0.1997,-0.1945,-0.1931,-0.1906,-0.187,-0.1863,-0.1858,-0.1843,-0.1861,-0.1847,-0.1851,-0.185,-0.1846,-0.1853,-0.1858,-0.1787,-0.1787,-0.1786,0,0,-0.2228,-0.22,-0.2196,-0.2171,-0.2132,-0.2101,-0.21,-0.2053,-0.2034,-0.2019,-0.198,-0.1966,-0.1932,-0.1908,-0.1891,-0.1923,-0.1894,-0.1917,-0.1949,-0.1948,-0.1953,-0.1957,-0.1969,-0.1974,-0.1919,-0.1919,-0.1919,0,-0.2265,-0.2241,-0.2197,-0.2185,-0.2168,-0.212,-0.2116,-0.2094,-0.2051,-0.204,-0.2024,-0.1981,-0.1953,-0.194,-0.1948,-0.1936,-0.1934,-0.1922,-0.1956,-0.196,-0.1963,-0.1974,-0.1978,-0.1922,-0.1922,-0.1921,-0.1921,0,-0.2289,-0.2273,-0.2274,-0.2233,-0.2216,-0.2208,-0.2164,-0.2152,-0.2126,-0.2097,-0.2082,-0.2047,-0.2018,-0.2013,-0.1986,-0.1997,-0.1988,-0.1965,-0.1936,-0.1973,-0.1982,-0.1986,-0.1927,-0.1925,-0.1925,-0.1924,0,0,-0.2365,-0.23,-0.2301,-0.2283,-0.2237,-0.2223,-0.2214,-0.2185,-0.2176,-0.2148,-0.2139,-0.2111,-0.2089,-0.2071,-0.2041,-0.204,-0.2068,-0.2016,-0.2015,-0.2027,-0.2078,-0.2096,-0.2101,-0.2049,-0.2049,-0.205,-0.2081,0,-0.2397,-0.2377,-0.2338,-0.233,-0.2314,-0.2269,-0.226,-0.2232,-0.2205,-0.2188,-0.2158,-0.214,-0.2112,-0.21,-0.2097,-0.2065,-0.2077,-0.2062,-0.204,-0.204,-0.2051,-0.2106,-0.2125,-0.2156,-0.2084,-0.2085,-0.2085,0,-0.2432,-0.2407,-0.2398,-0.2353,-0.2345,-0.2338,-0.2309,-0.2294,-0.2261,-0.2241,-0.2221,-0.2188,-0.2176,-0.215,-0.2133,-0.2124,-0.2113,-0.2096,-0.2096,-0.2093,-0.2065,-0.2104,-0.2165,-0.217,-0.209,-0.209,-0.2089,0,-0.2489,-0.2453,-0.2442,-0.2428,-0.2375,-0.2372,-0.235,-0.2316,-0.2301,-0.2276,-0.2266,-0.224,-0.2226,-0.2206,-0.2168,-0.2153,-0.2156,-0.2126,-0.2139,-0.214,-0.2142,-0.2143,-0.2202,-0.2135,-0.2135,-0.2135,-0.2134,0,-0.253,-0.2526,-0.2467,-0.2461,-0.2456,-0.2411,-0.2407,-0.2381,-0.2351,-0.2339,-0.2299,-0.2289,-0.2239,-0.2223,-0.2193,-0.2184,-0.2178,-0.2162,-0.2154,-0.2166,-0.2168,-0.2158,-0.2155,-0.2136,-0.2135,-0.2135,-0.2135,0,-0.2593,-0.2553,-0.2539,-0.2491,-0.2479,-0.2477,-0.2436,-0.2428,-0.2399,-0.2385,-0.2379,-0.2333,-0.2312,-0.2272,-0.2241,-0.2221,-0.2219,-0.2205,-0.223,-0.2225,-0.224,-0.224,-0.2296,-0.2301,-0.223,-0.2231,-0.2232,0,-0.2621,-0.2617,-0.2569,-0.2558,-0.2538,-0.2521,-0.2505,-0.2462,-0.2448,-0.241,-0.2407,-0.2384,-0.2362,-0.2332,-0.2296,-0.2272,-0.2257,-0.2279,-0.2253,-0.2265,-0.2258,-0.2259,-0.2258,-0.2284,-0.2285,-0.2286,-0.2287,0,-0.2676,-0.2657,-0.2637,-0.261,-0.2593,-0.257,-0.2544,-0.2538,-0.2488,-0.2475,-0.2453,-0.2437,-0.2405,-0.2382,-0.2353,-0.2331,-0.2301,-0.2295,-0.2297,-0.2309,-0.2324,-0.2316,-0.2246,-0.2294,-0.2293,-0.2293,-0.2292,-0.2292,-0.2723,-0.2717,-0.2682,-0.2661,-0.2638,-0.2615,-0.2606,-0.2575,-0.2557,-0.2527,-0.2502,-0.2483,-0.2451,-0.2408,-0.2388,-0.2373,-0.2358,-0.2361,-0.2361,-0.2363,-0.2368,-0.2326,-0.2367,-0.2367,-0.2367,-0.2367,-0.2366,0,-0.2776,-0.2751,-0.2732,-0.2698,-0.2682,-0.2655,-0.2626,-0.2614,-0.2598,-0.257,-0.255,-0.2525,-0.2503,-0.2466,-0.2441,-0.2436,-0.2422,-0.2431,-0.2431,-0.2426,-0.2382,-0.2383,-0.2443,-0.2443,-0.2443,-0.2443,-0.2443,-0.2443,-0.2802,-0.2791,-0.2768,-0.2746,-0.2721,-0.2702,-0.2687,-0.2667,-0.2644,-0.2619,-0.26,-0.2576,-0.2544,-0.2517,-0.2496,-0.2485,-0.2478,-0.2492,-0.2477,-0.2437,-0.2429,-0.2423,-0.2423,-0.249,-0.2491,-0.2523,-0.2523,-0.2523]},{"header":{"parameterUnit":"m.s-1","parameterCategory":1,"la1":30.2991,"la2":30.254,"lo1":-89.0895,"lo2":-89.0444,"dy":0.0017,"dx":0.0017,"nx":28,"ny":28,"refTime":"2024-11-22T03:00:00:Z","depth":0,"parameterNumber":3,"parameterNumberName":"V-component_of_WINDS"},"data":[0,0,0,0,0,0,0,0,0,0,0,0,0,0,0,0,0,0,0,0,0,0,0,0,0,0,0,0,0,0,0,0,0,0,0,0,0,0,0,0,0,0,0,0,0,0,0,0,0,0,0,0,0,0,0,0,0,0,1.3403,1.3403,0,1.3376,1.3375,1.3375,1.3362,1.3362,1.3362,1.3362,1.3331,1.333,1.333,0,0,0,0,0,0,0,0,0,0,0,0,0,1.3442,1.3441,1.3403,1.3403,1.3403,1.3376,1.3375,1.3375,1.3362,1.3362,1.3362,1.3362,1.3332,1.3331,1.333,0,0,0,0,0,0,0,0,0,0,0,0,0,1.3421,1.3441,1.3403,1.3393,1.3392,1.3376,1.3375,1.3375,1.3362,1.3362,1.3362,1.3362,1.3332,1.3331,1.3329,1.3321,0,0,1.3326,1.3325,0,0,0,0,0,0,0,0,1.3422,1.3419,1.3395,1.3394,1.3392,1.3373,1.3378,1.3357,1.3362,1.3373,1.3362,1.3362,1.3345,1.3342,1.3337,1.3319,1.3318,1.3325,1.3325,1.3324,1.3324,0,0,0,0,0,0,0,1.3423,1.342,1.3392,1.3395,1.3393,1.3389,1.3386,1.3374,1.3359,1.3372,1.3371,1.3369,1.3344,1.3338,1.3336,1.3317,1.3325,1.3324,1.3324,1.3323,1.3291,1.3291,0,0,0,0,0,0,1.3427,1.3422,1.3393,1.3391,1.3408,1.3388,1.3385,1.3379,1.3359,1.3356,1.3369,1.3368,1.3341,1.3338,1.3335,1.3324,1.3324,1.3323,1.3322,1.3291,1.3291,1.329,0,0,0,0,0,0,1.3428,1.3425,1.3394,1.3406,1.3402,1.3387,1.3381,1.3378,1.3373,1.3356,1.3353,1.3366,1.334,1.3337,1.3325,1.3322,1.3322,1.3321,1.3291,1.3291,1.3291,1.33,0,0,0,0,0,0,1.3429,1.3425,1.3422,1.3406,1.3402,1.3385,1.3381,1.3378,1.3371,1.337,1.3353,1.335,1.334,1.3327,1.3323,1.3321,1.332,1.3291,1.3291,1.3291,1.33,1.3301,1.3301,0,0,0,0,0,1.343,1.3425,1.3422,1.3419,1.3398,1.3385,1.3382,1.3372,1.3371,1.3367,1.3357,1.335,1.3323,1.3325,1.3322,1.3318,1.3291,1.3291,1.3291,1.33,1.3301,1.3301,0,0,0,0,0,0,1.344,1.3423,1.3419,1.3409,1.3399,1.3383,1.3378,1.3373,1.3362,1.3361,1.3348,1.3344,1.3333,1.3324,1.3327,1.3309,1.3306,1.3305,1.3315,1.3315,1.3316,1.3318,1.3319,0,0,0,0,0,1.3442,1.3433,1.3418,1.3411,1.3406,1.3393,1.3387,1.338,1.3368,1.3364,1.3352,1.334,1.3329,1.3321,1.331,1.3299,1.3295,1.3295,1.3295,1.3296,1.3295,1.3288,1.3288,1.329,1.329,1.329,0,0,1.3444,1.3433,1.3429,1.3413,1.3404,1.3395,1.3389,1.338,1.3373,1.3362,1.335,1.3341,1.3326,1.3315,1.3309,1.3307,1.3293,1.3295,1.3296,1.3295,1.3288,1.3287,1.3287,1.329,1.329,1.329,0,0,1.3443,1.3434,1.3427,1.3418,1.3405,1.3397,1.3395,1.338,1.3374,1.3362,1.3353,1.3344,1.3325,1.3315,1.3307,1.3303,1.3296,1.3299,1.3301,1.3295,1.3295,1.3294,1.3292,1.3292,1.3299,1.3299,1.3299,0,1.3447,1.3434,1.3424,1.3415,1.3408,1.3399,1.3391,1.3382,1.3366,1.3361,1.3359,1.3335,1.3325,1.3311,1.3309,1.3304,1.3301,1.3301,1.3296,1.3295,1.3295,1.3293,1.3292,1.3299,1.3299,1.3299,1.3299,0,1.3439,1.343,1.3426,1.3411,1.3403,1.3395,1.3383,1.3377,1.337,1.3362,1.3349,1.3336,1.3322,1.3318,1.3312,1.3303,1.3302,1.3298,1.3296,1.3295,1.3293,1.3292,1.33,1.33,1.33,1.3299,0,0,1.3444,1.3424,1.3423,1.3416,1.3401,1.3393,1.3384,1.3371,1.3365,1.3354,1.3346,1.333,1.3326,1.3318,1.331,1.3304,1.3301,1.3301,1.33,1.3301,1.329,1.3293,1.3292,1.3297,1.3296,1.3296,1.3291,0,1.3441,1.3425,1.3416,1.3404,1.3395,1.3386,1.3378,1.3367,1.3359,1.3349,1.334,1.3329,1.3325,1.332,1.3314,1.3303,1.3298,1.3303,1.3288,1.3288,1.3292,1.3291,1.3294,1.329,1.329,1.329,1.329,0,1.3435,1.3425,1.3412,1.3398,1.3394,1.3387,1.3375,1.3366,1.3353,1.3348,1.3338,1.333,1.332,1.3318,1.3302,1.3306,1.3299,1.3293,1.3292,1.329,1.3289,1.3289,1.3288,1.3288,1.3289,1.3289,1.3289,0,1.344,1.3423,1.3413,1.3407,1.3391,1.3386,1.3379,1.3366,1.3359,1.3348,1.3343,1.333,1.3323,1.3312,1.3301,1.3301,1.3286,1.3284,1.3281,1.3281,1.3278,1.3278,1.3276,1.3274,1.3274,1.3274,1.3274,0,1.3437,1.343,1.3415,1.3409,1.34,1.3389,1.338,1.3372,1.3361,1.3352,1.3343,1.3335,1.3321,1.3311,1.3301,1.329,1.3287,1.3281,1.3279,1.3282,1.3283,1.3277,1.3277,1.3274,1.3274,1.3274,1.3274,0,1.3441,1.3431,1.3419,1.3405,1.3401,1.3395,1.3382,1.3375,1.3366,1.3355,1.3352,1.3338,1.3326,1.3313,1.3296,1.329,1.3279,1.3275,1.3283,1.3282,1.3279,1.328,1.3273,1.3272,1.3271,1.3271,1.3271,0,1.344,1.3434,1.3419,1.3413,1.3406,1.3397,1.3389,1.3378,1.3371,1.3356,1.3351,1.3338,1.3328,1.3308,1.3296,1.3282,1.3279,1.3278,1.3277,1.328,1.3279,1.3279,1.3278,1.3278,1.3278,1.3278,1.3278,0,1.3439,1.3435,1.3425,1.3414,1.3406,1.3396,1.3386,1.3382,1.3368,1.3361,1.3348,1.334,1.3323,1.331,1.3296,1.3287,1.328,1.3278,1.3277,1.328,1.3285,1.3282,1.3284,1.3279,1.3279,1.3278,1.3278,1.3278,1.344,1.3435,1.3423,1.3413,1.3404,1.3395,1.3388,1.3379,1.3369,1.3355,1.3349,1.3336,1.3323,1.3303,1.3295,1.3284,1.3282,1.328,1.328,1.3279,1.328,1.3287,1.3281,1.3281,1.3281,1.3281,1.3281,0,1.3439,1.3431,1.3422,1.3409,1.3401,1.3396,1.3384,1.3377,1.3367,1.3356,1.3346,1.3331,1.3319,1.3306,1.3292,1.3286,1.3283,1.3283,1.3283,1.3281,1.3282,1.3285,1.3286,1.3286,1.3286,1.3286,1.3286,1.3286,1.3438,1.3428,1.3422,1.3407,1.3399,1.3388,1.3382,1.3373,1.3364,1.3349,1.3339,1.3331,1.3318,1.3304,1.3292,1.3288,1.3284,1.3285,1.328,1.3282,1.3281,1.3281,1.3283,1.3284,1.3284,1.328,1.328,1.328]}]]